Location: Cabanac-Cazaux
(43.0343°N, 0.7404°E)
Time: 20:46:16
(UTC+00:00)

Daily predictions for brighter satellites

Satellite Brightness Start Highest point End
(mag) Time Altitude Azimuth Time Altitude Azimuth Time Altitude Azimuth
BREEZE-M DEB (TANK) 3.8 19:06:54 10° WSW 19:12:43 79° NNW 19:17:22 10° ENE
Cosmos 2228 3.6 19:09:55 10° SSW 19:14:12 63° W 19:18:29 10° N
Cosmos 2322 Rocket 4.4 19:11:38 10° NW 19:16:20 27° WSW 19:21:00 10° SSW
Cosmos 2026 Rocket 4.3 19:10:32 10° N 19:16:21 45° ENE 19:22:11 10° SSE
Cosmos 909 Rocket 4.2 19:10:36 10° S 19:16:45 50° ESE 19:22:51 10° NE
Cosmos 1818 3.6 19:11:41 10° SSW 19:17:01 62° ESE 19:22:25 10° NE
DMSP B5D2-2 4.1 19:11:47 10° NNE 19:17:01 69° ESE 19:22:16 10° S
MetOp-A 4.2 19:12:58 10° SSE 19:18:14 61° ENE 19:23:31 10° N
Cosmos 2297 Rocket 3.4 19:14:41 10° SE 19:18:39 20° E 19:22:38 10° NE
Cosmos 1726 Rocket 3.6 19:15:32 10° S 19:19:54 85° W 19:24:17 10° N
H-2A R/B 3.8 19:15:49 10° SSW 19:20:19 33° W 19:24:46 10° NNW
USA 186 1.9 19:19:24 10° SSE 19:22:39 57° ENE 19:25:47 10° N
SJ-6B 3.2 19:20:01 10° SE 19:23:31 42° ENE 19:27:06 10° N
Cosmos 44 3.4 19:19:24 10° SSW 19:24:28 83° ESE 19:29:51 10° NE
ARGOS 4.2 19:20:33 10° S 19:25:43 48° W 19:30:55 10° NNW
Cosmos 2219 4.4 19:22:08 10° SSE 19:26:10 21° E 19:30:12 10° NE
Cosmos 2333 Rocket 2.4 19:23:28 10° NNW 19:29:15 81° WSW 19:34:57 10° SSE
Abrixas rocket 2.2 19:32:47 10° W 19:34:22 33° NNW 19:35:57 10° NE
SL-8 R/B 3.7 19:30:17 10° WNW 19:35:09 87° SSW 19:39:29 13° ESE
Cosmos 1634 Rocket 4.0 19:30:11 10° S 19:36:22 66° E 19:42:33 10° NNE
Cosmos 1633 4.5 19:34:32 10° NE 19:36:32 14° ENE 19:37:56 12° E
Cosmos 2322 4.1 19:31:29 10° NNW 19:37:07 67° WSW 19:42:42 10° SSE
Meteor 2-19 Rocket 4.5 19:32:56 10° N 19:39:07 74° E 19:45:16 10° SSE
Cosmos 405 3.7 19:36:34 10° SSW 19:39:57 56° W 19:43:24 10° N
CZ-2C R/B 3.9 19:35:50 10° N 19:40:45 44° WNW 19:45:44 10° SW
CSL-04 Rocket 4.4 19:35:50 10° S 19:40:59 54° W 19:46:10 10° NNW
COSMOS 2455 4.3 19:40:27 12° SE 19:42:51 15° ESE 19:46:02 10° ENE
ATLAS 2AS CENTAUR R/B 3.8 19:35:37 10° SW 19:43:22 56° NW 19:51:00 10° NNE
ERS-2 3.2 19:42:15 10° N 19:45:47 48° WNW 19:49:17 10° SSW
Cosmos 1076 Rocket 4.2 19:42:18 10° N 19:46:21 37° ENE 19:49:35 14° SE
IRS-1A Rocket 4.3 19:44:19 10° SSE 19:49:48 66° ENE 19:55:28 10° N
CZ-4 R/B 4.5 19:50:18 10° SW 19:52:38 14° W 19:54:58 10° WNW
SL-16 R/B 3.9 19:49:40 10° N 19:53:35 19° NE 19:56:59 12° E
Cosmos 1980 4.1 19:48:25 10° NNW 19:53:54 47° ENE 19:58:00 17° SE
Cosmos 2058 Rocket 3.7 19:49:47 10° SSW 19:54:04 59° W 19:58:23 10° N
Cosmos 389 Rocket 2.7 19:51:34 10° S 19:54:57 48° E 19:58:24 10° NNE
Cosmos 2360 Rocket 4.5 19:50:46 10° NW 19:55:02 22° W 19:59:17 10° SSW
SL-4 R/B 2.6 19:52:26 10° SSW 19:56:26 39° SE 20:00:43 10° ENE
Cosmos 2292 Rocket 4.5 19:51:18 10° N 19:57:35 50° ENE 20:01:19 16° SSE
Cosmos 2251 Rocket 3.8 19:55:14 10° SSW 20:00:35 73° WNW 20:05:56 10° NNE
Ariane Rocket 2.9 19:55:52 10° SSE 20:00:54 78° ENE 20:05:58 10° N
Cosmos 1455 3.4 19:59:11 10° SSW 20:02:45 43° WNW 20:06:21 10° N
NOSS 0 Rocket 3.9 19:56:51 10° NNW 20:03:06 79° ENE 20:08:10 16° SSE
Cosmos 1812 Rocket 3.8 19:59:15 10° SSE 20:03:30 47° E 20:07:47 10° NNE
FALCON 9 DEB 3.3 20:01:20 10° SSW 20:04:12 38° SE 20:05:23 26° E
Meteor 2-1 Rocket 4.4 20:00:42 10° SSW 20:06:32 81° W 20:12:30 10° N
Cosmos 614 Rocket 4.0 20:02:37 10° SSW 20:07:46 85° WNW 20:12:54 10° NNE
FALCON 9 DEB 2.8 20:07:03 10° SW 20:10:01 55° SE 20:11:42 22° ENE
COSMOS 2428 3.4 20:04:45 10° NNW 20:10:20 54° WSW 20:15:53 10° S
Cosmos 2219 Rocket 3.2 20:04:58 10° NW 20:10:21 44° WSW 20:15:41 10° S
Cosmos 2344 3.9 20:06:50 10° SW 20:14:19 69° NW 20:22:10 10° NE
SPOT 3 Rocket 3.8 20:11:35 21° SE 20:14:52 54° ENE 20:19:55 10° N
Cosmos 1655 Rocket 4.2 20:11:28 10° N 20:17:34 50° ENE 20:21:20 23° SE
ATLAS 3B R/B 3.1 20:11:22 10° NW 20:18:22 65° WSW 20:24:23 16° SSE
Terra 3.9 20:20:42 12° ENE 20:21:40 12° ENE 20:23:37 10° NE
FALCON 9 DEB 2.6 20:19:25 10° SW 20:22:26 82° SE 20:23:54 27° ENE
Meteor 2-3 Rocket 4.1 20:17:13 10° N 20:22:44 45° ENE 20:25:24 27° SE
USA 215 4.0 20:18:58 15° E 20:23:55 43° NNE 20:30:01 10° NW
Resurs 01 Rocket 1.6 20:22:49 27° SSE 20:25:11 70° ENE 20:29:38 10° N
SPOT 5 4.4 20:25:52 17° ENE 20:26:46 18° ENE 20:29:59 10° NNE
Cosmos 1809 Rocket 4.4 20:22:42 10° N 20:28:50 82° E 20:33:22 19° SSE
Resurs 1-3 4.0 20:25:47 15° S 20:29:16 62° W 20:33:38 10° NNW
Cosmos 405 Rocket 3.5 20:27:36 10° NNW 20:31:29 51° W 20:34:15 17° SSW
MetOp-B 4.2 20:30:18 29° SE 20:32:54 59° ENE 20:38:11 10° N
ERS-1 Rocket 4.2 20:34:05 23° E 20:35:08 25° ENE 20:39:08 10° NNE
OBJECT-B 3.6 20:39:33 10° SW 20:41:42 17° W 20:43:52 10° NW
Cosmos 2237 Rocket 2.2 20:36:24 10° NNW 20:42:03 81° WSW 20:44:53 31° SSE
FALCON 9 DEB 2.8 20:39:55 10° WSW 20:42:58 78° NW 20:43:00 78° NNW
Cosmos 407 Rocket 3.6 20:38:14 10° SSW 20:43:21 77° WNW 20:48:34 10° NNE
Meteor 2-14 Rocket 4.4 20:38:18 10° N 20:44:24 89° ENE 20:48:03 26° S
Cosmos 2084 Rocket 3.2 20:47:42 10° SW 20:51:40 81° NW 20:55:43 10° NE
Lacrosse 5 rocket 4.1 20:50:11 10° NNW 20:52:18 13° N 20:54:26 10° NE
Landsat 7 3.8 20:51:00 38° S 20:52:49 83° WSW 20:57:36 10° NNW
Cosmos 2082 3.8 20:53:32 42° SE 20:54:45 49° ESE 21:00:09 10° NE
Cosmos 1869 3.9 20:55:43 42° ENE 20:55:43 42° ENE 20:58:51 10° NNE
Cosmos 2227 Rocket 2.2 20:49:35 10° SSW 20:55:15 87° WNW 21:00:58 10° NNE
Cosmos 1140 Rocket 3.8 20:54:20 10° SSW 20:59:24 63° WNW 21:04:30 10° NNE
Cosmos 1954 Rocket 3.8 20:58:20 39° S 21:00:12 69° ESE 21:05:22 10° NNE
Cosmos 2297 Rocket 2.7 20:56:36 10° SW 21:02:10 60° WNW 21:07:47 10° NNE
Cosmos-2242 3.2 21:01:02 35° SSW 21:02:45 70° W 21:07:04 10° N
Meteor 2-21 Rocket 4.5 21:03:09 10° NNW 21:09:12 76° W 21:11:54 35° S
Genesis I 3.3 21:05:28 10° NW 21:09:24 74° WSW 21:09:24 74° WSW
Cosmos 2219 3.7 21:04:18 10° SW 21:09:48 58° WNW 21:15:22 10° NNE
Spot 2 Rocket 3.4 21:09:34 59° SE 21:10:28 77° ENE 21:15:33 10° N
Cosmos 2151 3.8 21:06:25 10° NNW 21:10:33 46° W 21:11:51 35° SW
Cosmos 1633 3.9 21:08:09 10° NNW 21:11:26 34° W 21:12:01 32° WSW
Cosmos 44 Rocket 3.2 21:16:06 69° SSE 21:16:27 72° ESE 21:21:38 10° NE
Meteor 1-4 Rocket 3.9 21:19:02 33° N 21:19:02 33° N 21:21:07 10° N
ARIANE 5 R/B 2.5 21:18:32 88° ESE 21:18:35 88° ENE 21:22:59 10° NNW
Cosmos 1408 Rocket 4.5 21:15:09 10° N 21:18:23 37° NE 21:18:23 37° NE
Cosmos 2266 Rocket 4.3 21:13:38 10° NNW 21:19:56 65° W 21:22:48 33° SSW
USA 245 3.9 21:23:34 48° WNW 21:23:34 48° WNW 21:26:09 10° NNW
Meteor 2-15 Rocket 4.5 21:27:31 55° E 21:27:43 55° E 21:33:37 10° NNE
COSMOS 2455 2.8 21:23:13 17° SSW 21:27:56 88° WNW 21:34:00 10° NNE
Cosmos 2221 3.9 21:29:48 29° NE 21:29:48 29° NE 21:32:07 10° NNE
Cosmos 468 Rocket 4.1 21:24:45 10° NNW 21:29:45 58° ENE 21:29:45 58° ENE
SL-4 R/B 3.0 21:31:42 10° W 21:36:03 51° NNW 21:38:43 23° NE
SL-16 R/B 2.1 21:32:42 10° NNW 21:38:24 80° WSW 21:38:53 73° SSW
Nadezhda 2 Rocket 4.3 21:34:06 10° N 21:40:22 77° E 21:41:00 70° SE
Cosmos 1763 Rocket 3.5 21:39:17 10° NNW 21:43:55 69° NNE 21:43:55 69° NNE
Cosmos 540 Rocket 4.1 21:50:00 10° N 21:54:12 46° NE 21:54:12 46° NE
Cosmos 1244 Rocket 4.4 21:52:09 10° N 21:58:33 85° W 21:59:03 77° SSW
SL-08 R/B 4.4 21:52:24 10° N 21:58:34 71° ENE 21:58:34 71° ENE
Terra 2.2 21:59:35 60° NNW 21:59:35 60° NNW 22:03:30 10° NNW
Resurs 01 Rocket 4.3 22:00:37 10° WSW 22:02:09 12° W 22:03:40 10° WNW
NOSS 3-1 (C) 4.1 21:54:57 10° NW 22:02:32 75° NE 22:04:15 59° ESE
SPOT 5 3.6 22:05:05 46° WNW 22:05:05 46° WNW 22:09:02 10° NNW
Cosmos 1943 3.9 21:59:50 10° NNW 22:04:47 42° NE 22:04:47 42° NE
USA 215 3.1 22:06:18 72° SSW 22:06:40 74° SW 22:13:14 10° NW
Cosmos 1553 Rocket 3.8 22:08:28 82° NE 22:08:28 82° NE 22:14:20 10° N
ERS-1 Rocket 3.9 22:14:04 41° W 22:14:04 41° W 22:18:26 10° NNW
Cosmos 1417 Rocket 4.4 22:19:39 82° NNE 22:19:39 82° NNE 22:25:38 10° N
Aureole 1 Rocket 4.1 22:22:52 54° N 22:22:52 54° N 22:26:30 10° NNE
Cosmos 2263 Rocket 2.8 22:33:26 49° NNE 22:33:26 49° NNE 22:37:29 10° NNE
Lacrosse 5 rocket 3.5 22:28:51 10° NNW 22:31:37 26° N 22:31:37 26° N
SeaSat 1 4.0 22:32:16 10° NNE 22:34:31 27° NE 22:34:31 27° NE
Cosmos 1603 4.4 22:47:15 10° NNW 22:51:30 51° NW 22:51:30 51° NW
USA 229 DEB 4.0 23:03:53 10° NW 23:10:27 65° W 23:10:27 65° W
USA 229 4.0 23:03:58 10° NW 23:10:34 65° W 23:10:34 65° W
Cosmos 1709 Rocket 4.5 23:12:43 10° NNW 23:17:37 55° NW 23:17:37 55° NW
NOSS 3-1 (A) 4.3 23:21:37 10° NW 23:28:27 59° W 23:28:27 59° W
ATLAS 5 CENTAUR R/B 4.3 23:39:38 10° NNW 23:43:43 21° NE 23:46:48 15° ENE
